This is the latest recevied weather packets stored in our database for station/object G4KVI. If no packets are shown the sender has not sent any weather packets the latest 10 day(s).
| Time | Temp. | Humidity | Pressure | Rain* | Wind** | Luminosity | Snow |
|---|---|---|---|---|---|---|---|
| 1778062804 | 12.22° C | 50% | 1016.1 hPa | 0 mm | - | 665 W/m² | - |
| 1778062504 | 12.22° C | 52% | 1016.3 hPa | 0 mm | - | 489 W/m² | - |
| 1778062204 | 12.22° C | 50% | 1016.4 hPa | 0 mm | - | 566 W/m² | - |
| 1778061903 | 12.22° C | 50% | 1016.2 hPa | 0 mm | - | 566 W/m² | - |
| 1778061604 | 11.67° C | 52% | 1016.3 hPa | 0 mm | - | 596 W/m² | - |
| 1778061303 | 11.67° C | 51% | 1016.4 hPa | 0 mm | - | 418 W/m² | - |
| 1778061025 | 11.67° C | 53% | 1016.6 hPa | 0 mm | - | 544 W/m² | - |
| 1778060703 | 11.67° C | 54% | 1016.2 hPa | 0 mm | - | 528 W/m² | - |
| 1778060404 | 11.67° C | 55% | 1016.4 hPa | 0 mm | - | 457 W/m² | - |
| 1778060103 | 11.11° C | 55% | 1016.3 hPa | 0 mm | - | 622 W/m² | - |
| 1778059804 | 11.11° C | 56% | 1016.3 hPa | 0 mm | - | 422 W/m² | - |
| 1778059504 | 11.11° C | 56% | 1016.2 hPa | 0 mm | - | 394 W/m² | - |
| 1778059204 | 11.11° C | 57% | 1016.2 hPa | 0 mm | - | 446 W/m² | - |
| 1778058925 | 11.11° C | 58% | 1016.6 hPa | 0 mm | - | 391 W/m² | - |
| 1778058603 | 11.11° C | 57% | 1016.2 hPa | 0 mm | - | 544 W/m² | - |
| 1778058303 | 11.11° C | 55% | 1016.4 hPa | 0 mm | - | 494 W/m² | - |
| 1778058004 | 10.56° C | 58% | 1016.2 hPa | 0 mm | - | 481 W/m² | - |
| 1778057703 | 10.56° C | 58% | 1016.4 hPa | 0 mm | - | 566 W/m² | - |
| 1778057403 | 10.56° C | 59% | 1016.3 hPa | 0 mm | - | 454 W/m² | - |
| 1778057103 | 10° C | 60% | 1016.4 hPa | 0 mm | - | 502 W/m² | - |
| 1778056804 | 10° C | 61% | 1016.2 hPa | 0 mm | - | 293 W/m² | - |
| 1778056503 | 10.56° C | 61% | 1016.4 hPa | 0 mm | - | 414 W/m² | - |
| 1778056225 | 10° C | 62% | 1016.5 hPa | 0 mm | - | 453 W/m² | - |
| 1778055903 | 10° C | 64% | 1016.3 hPa | 0 mm | - | 314 W/m² | - |
| 1778055603 | 10° C | 64% | 1016.4 hPa | 0 mm | - | 242 W/m² | - |
* Rain latest hour (hover to see other rain measurements)
** Current wind speed in m/s (hover to see current wind gust speed)